Vertical_Velocity
-2 -3 -4 1 0 -1 -1 -1 -1 -0 0 -0 0 1 -1 -3 -3 -2 -0 -2 -2 -2 -2 -1 1 1 -3 -2 -1 -0 -1 -1 -1 -1 -2 -2 -2 -3 -3 -3 -3 -3 -3 -2 -2 -2 -3 -3 -4 -4 -4 -3 -1 2 3 7 8 6 1 -3 -3 -3 -2 -1 0 0 0 -1 -2 -3 -2 -2 -1 -1 -1 -1 -1 -1 -1 -1 -1 -1 -1 -2 -2 -2 -3 -3 -3 -2 -2 -2 -2 -2 -2 -1 -1 -1 -1 -1 -1 -1 -0
-1 -2 -4 -3 -3 -2 0 -0 -2 -3 -0 1 1 -0 -3 -2 -2 -2 -1 -1 -2 -3 -3 -3 -1 -0 -1 0 2 2 1 1 -1 -2 -2 -2 -2 -3 -3 -2 -2 -3 -3 -3 -3 -3 -3 -3 -3 -4 -4 -5 -4 -4 -4 -2 2 5 4 -0 -3 -3 -2 -2 -2 -1 -1 -2 -2 -2 -1 -1 -1 -1 -1 -1 -1 -1 -1 -1 -1 -1 -1 -1 -2 -2 -2 -2 -3 -3 -3 -3 -3 -3 -3 -3 -2 -2 -2 -2 -2 -1 -1
-1 -1 -2 -2 -1 1 6 4 -1 -4 -2 -2 -2 -3 -3 -0 1 2 1 -0 -1 -2 -3 -3 -3 -3 -1 1 2 2 2 1 -2 -4 -4 -3 -3 -3 -3 -3 -3 -3 -3 -2 -4 -5 -4 -3 -3 -4 -4 -5 -5 -3 -2 -3 -1 1 3 2 -0 -2 -3 -3 -3 -3 -3 -3 -3 -2 -1 -1 -1 -1 -1 -2 -2 -2 -1 -1 -1 -1 -1 -0 -0 -1 -2 -2 -2 -2 -3 -3 -3 -3 -3 -3 -3 -3 -3 -3 -3 -2 -2
0 3 5 1 -1 0 8 3 -1 -3 -2 -3 -3 -2 -1 1 2 3 2 0 -1 -3 -3 -3 -3 -3 -4 -2 -1 1 1 -0 -3 -4 -4 -4 -3 -3 -4 -5 -5 -5 -5 -5 -6 -7 -5 -5 -5 -5 -5 -5 -4 -2 0 2 3 2 3 4 3 0 -2 -3 -3 -3 -3 -4 -3 -2 -1 -1 -1 -1 -1 -1 -1 -1 -2 -1 -1 -1 -1 0 0 -0 -1 -2 -2 -2 -2 -2 -2 -3 -3 -3 -3 -3 -3 -3 -3 -3 -3
5 8 10 4 -1 -3 1 -2 -1 0 1 -2 -3 -2 -1 -1 0 0 0 -1 -3 -3 -2 -2 -1 -2 -3 -5 -4 -4 -4 -4 -4 -4 -4 -4 -3 -3 -3 -4 -5 -5 -5 -6 -7 -7 -6 -5 -5 -5 -5 -5 -5 -4 -1 1 2 2 2 3 3 3 2 -2 -4 -4 -3 -3 -3 -2 -2 -1 -1 -1 -1 -1 -1 -2 -2 -2 -1 -1 -0 0 0 0 -0 -2 -2 -2 -2 -2 -2 -2 -2 -2 -2 -3 -3 -2 -2 -2 -2
4 3 2 1 1 0 -4 0 3 3 -2 -2 -2 -2 -2 -2 -2 -2 -3 -3 -3 -2 -1 -1 -1 -1 -1 -2 -3 -5 -5 -5 -5 -4 -4 -3 -3 -3 -3 -3 -3 -3 -3 -3 -4 -5 -5 -4 -4 -5 -4 -5 -6 -7 -7 -6 -5 -5 -4 -2 1 3 3 -2 -5 -6 -4 -3 -3 -3 -3 -3 -3 -2 -2 -2 -2 -2 -2 -2 -2 -2 -1 -1 -0 1 3 -0 -2 -3 -2 -2 -1 -1 -1 -2 -2 -2 -2 -2 -1 -2 -2
-3 -3 -4 -3 -2 -1 -3 -3 -3 -4 -3 -2 -2 -2 -2 -2 -2 -2 -2 -2 -2 -1 -1 -1 -1 -1 -1 -1 -2 -2 -3 -3 -3 -3 -2 -2 -2 -2 -2 -2 -2 -2 -2 -3 -3 -4 -4 -3 -3 -4 -4 -4 -5 -5 -6 -7 -8 -8 -8 -6 -4 -3 -3 -6 -8 -8 -6 -4 -3 -3 -4 -4 -4 -4 -4 -4 -3 -3 -2 -2 -3 -3 -3 -2 -3 -1 4 2 -1 -3 -3 -2 -2 -2 -1 -1 -2 -2 -2 -2 -2 -2 -2
-3 -3 -4 -3 -3 -2 -2 -3 -3 -3 -2 -2 -2 -1 -1 -1 -1 -1 -1 -1 -1 -1 -1 -1 -1 -1 -1 -1 -1 -1 -2 -2 -2 -2 -2 -2 -2 -3 -2 -2 -2 -2 -1 -2 -2 -3 -3 -3 -2 -3 -3 -3 -4 -4 -4 -5 -6 -7 -8 -8 -8 -8 -8 -9 -10 -9 -5 -3 -2 -2 -3 -4 -5 -5 -6 -6 -6 -5 -4 -4 -4 -4 -4 -3 -4 -4 -2 2 2 -0 -5 -3 -2 -2 -1 -1 -2 -2 -2 -2 -2 -2 -2
-3 -4 -3 -3 -3 -3 -3 -3 -3 -2 -2 -2 -2 -1 -1 -1 -1 -1 -1 -1 -1 -1 -2 -1 -1 -1 -2 -2 -2 -2 -2 -2 -2 -2 -2 -3 -3 -3 -2 -2 -2 -2 -2 -2 -2 -2 -2 -2 -2 -2 -2 -2 -3 -3 -4 -4 -5 -5 -5 -6 -7 -7 -7 -8 -8 -7 -5 -3 -3 -3 -3 -4 -4 -5 -5 -6 -7 -7 -7 -6 -5 -5 -5 -4 -4 -5 -6 -2 3 5 -2 -3 -3 -2 -2 -2 -2 -2 -2 -1 -1 -1 -1
-3 -3 -3 -3 -3 -3 -3 -3 -3 -3 -2 -2 -2 -1 -1 -1 -1 -1 -2 -2 -2 -2 -2 -2 -2 -2 -2 -2 -2 -2 -2 -3 -3 -3 -3 -2 -2 -2 -2 -2 -2 -2 -2 -2 -2 -2 -2 -2 -1 -1 -1 -1 -2 -3 -4 -4 -4 -4 -4 -4 -4 -4 -4 -4 -4 -5 -5 -5 -5 -4 -4 -4 -3 -3 -4 -4 -5 -6 -7 -7 -6 -6 -6 -5 -5 -5 -5 -6 -2 2 5 0 -3 -4 -2 -2 -2 -2 -2 -1 -1 -1 -2
-3 -3 -3 -3 -3 -3 -3 -3 -2 -2 -2 -2 -2 -1 -1 -2 -2 -2 -2 -2 -2 -3 -2 -2 -2 -2 -2 -3 -3 -3 -3 -3 -3 -3 -3 -2 -2 -2 -2 -2 -2 -2 -2 -2 -2 -2 -1 -1 -1 -0 -1 -1 -2 -2 -3 -3 -2 -2 -2 -2 -2 -2 -3 -3 -3 -3 -3 -4 -4 -4 -4 -3 -3 -3 -2 -2 -3 -3 -4 -5 -5 -6 -5 -5 -4 -4 -4 -5 -5 -4 2 2 -1 -3 -3 -2 -2 -1 -2 -2 -1 -1 -1
-2 -2 -2 -2 -2 -2 -2 -2 -2 -2 -2 -2 -2 -2 -2 -2 -2 -2 -2 -3 -3 -3 -2 -2 -2 -2 -2 -2 -3 -3 -3 -3 -2 -2 -2 -2 -2 -2 -2 -2 -2 -2 -2 -2 -2 -2 -1 -1 -1 -1 -3 -4 -3 -3 -2 -2 -1 -0 -0 0 -0 -1 -2 -2 -2 -2 -2 -3 -3 -3 -3 -3 -3 -3 -2 -2 -1 -2 -2 -3 -4 -4 -5 -5 -4 -4 -4 -3 -4 -4 -4 -1 0 -0 -2 -3 -2 -1 -2 -2 -2 -1 -0
-2 -2 -2 -2 -2 -2 -2 -2 -2 -2 -2 -2 -2 -2 -2 -2 -2 -2 -2 -2 -2 -2 -2 -2 -2 -2 -2 -2 -2 -2 -2 -2 -2 -2 -2 -1 -1 -1 -1 -2 -2 -2 -2 -2 -2 -2 -2 -2 -2 -3 -4 -4 -3 -2 -2 -2 -1 -0 1 2 2 1 0 -1 -1 -2 -2 -2 -2 -2 -2 -2 -2 -2 -2 -2 -2 -1 -1 -1 -2 -2 -3 -4 -4 -4 -4 -4 -3 -3 -2 -3 -1 -0 0 -0 -1 -1 -1 -2 -2 -2 -1
-2 -2 -2 -2 -2 -2 -2 -2 -2 -2 -2 -2 -2 -2 -2 -2 -2 -2 -2 -2 -2 -2 -2 -2 -2 -2 -2 -2 -2 -2 -2 -2 -2 -2 -2 -1 -1 -1 -1 -2 -2 -2 -2 -2 -2 -2 -3 -3 -3 -4 -3 -3 -2 -2 -3 -3 -2 -1 0 1 1 1 1 -0 -1 -1 -1 -2 -2 -2 -2 -2 -2 -2 -2 -2 -2 -2 -1 -1 -1 -1 -1 -2 -2 -3 -3 -4 -3 -3 -2 -2 -2 -2 -1 0 -0 -1 -1 -1 -2 -2 -2
-1 -2 -2 -2 -2 -2 -2 -2 -2 -2 -2 -2 -2 -2 -2 -2 -2 -2 -2 -2 -2 -2 -2 -2 -2 -2 -2 -2 -2 -2 -2 -2 -2 -2 -1 -1 -1 -0 -0 -1 -1 -1 -2 -2 -2 -2 -3 -3 -3 -3 -3 -2 -2 -3 -3 -4 -4 -3 -1 0 1 1 0 -0 -1 -1 -1 -1 -2 -2 -2 -2 -2 -2 -3 -3 -3 -3 -3 -2 -1 -1 -1 -1 -1 -1 -2 -3 -3 -3 -3 -2 -2 -2 -2 -2 -1 -1 -1 -1 -1 -2 -2
-1 -1 -1 -1 -2 -2 -2 -2 -2 -2 -2 -2 -2 -2 -2 -2 -2 -2 -2 -2 -2 -2 -2 -2 -3 -3 -3 -2 -2 -2 -3 -2 -2 -1 -0 0 0 0 0 0 -0 -1 -2 -2 -2 -2 -2 -3 -3 -3 -3 -2 -2 -2 -3 -4 -5 -4 -2 -1 0 1 0 -0 -1 -1 -1 -1 -1 -2 -2 -2 -2 -2 -2 -2 -3 -3 -3 -3 -3 -2 -2 -1 -1 -1 -1 -2 -2 -3 -3 -3 -2 -2 -2 -2 -2 -2 -1 -1 -1 -2 -3
-1 -0 -0 -1 -1 -2 -2 -2 -2 -2 -2 -2 -2 -2 -2 -2 -2 -2 -2 -2 -2 -2 -2 -2 -3 -2 -2 -2 -2 -2 -3 -2 -2 -2 -2 -2 -2 -1 -1 -0 -0 -0 -1 -2 -2 -1 -1 -2 -2 -2 -1 -1 -1 -1 -2 -4 -4 -4 -3 -1 -0 1 1 0 -0 -1 -1 -1 -1 -1 -1 -2 -2 -2 -2 -2 -2 -2 -2 -3 -3 -3 -3 -3 -2 -2 -1 -1 -1 -2 -2 -3 -3 -3 -2 -2 -2 -2 -3 -2 -1 -2 -2
0 0 1 0 -0 -1 -1 -1 -1 -1 -1 -1 -1 -2 -2 -2 -2 -1 -1 -1 -1 -1 -2 -2 -2 -2 -2 -1 -1 -1 -2 -2 -2 -4 -6 -7 -6 -5 -3 -2 -1 -0 -0 -1 -1 -1 -1 -1 -1 -1 -1 0 -0 -1 -2 -3 -4 -3 -2 -2 -1 1 1 1 0 0 -0 -0 -0 -1 -1 -1 -1 -1 -1 -1 -1 -1 -1 -2 -2 -3 -3 -3 -3 -3 -3 -2 -2 -2 -2 -2 -2 -3 -3 -3 -2 -2 -3 -3 -2 -2 -1
2 2 2 1 1 0 -0 -0 -0 -0 -0 -1 -1 -1 -1 -1 -1 -0 -0 -0 -0 -0 -0 -0 -1 -1 -0 -0 0 0 -1 -2 -3 -4 -5 -5 -5 -6 -6 -5 -4 -3 -3 -3 -2 -2 -2 -1 -0 0 0 0 0 0 -1 -3 -3 -2 -2 -1 -1 0 1 1 1 1 0 0 0 -0 -0 -0 -1 -1 -1 -1 -1 -1 -1 -1 -1 -1 -2 -3 -3 -3 -3 -3 -3 -2 -2 -2 -2 -2 -2 -3 -3 -3 -3 -3 -2 -2 -2
2 1 1 1 0 -0 -1 -1 -1 -1 -1 -0 -0 -1 -1 0 0 1 1 1 1 1 2 2 1 1 1 1 -0 -1 -3 -3 -3 -2 -1 0 1 -1 -4 -5 -5 -5 -5 -4 -2 -1 -1 0 1 1 1 1 1 1 1 -1 -2 -2 -1 -1 -1 0 1 1 1 1 0 0 0 0 0 0 -0 -0 -0 -1 -1 -1 -1 -0 -0 -0 -1 -1 -2 -2 -3 -3 -3 -3 -3 -2 -2 -2 -2 -2 -2 -3 -3 -3 -2 -1 -2
-2 -2 -3 -3 -4 -4 -4 -4 -5 -4 -4 -3 -2 -1 -1 -2 -2 -3 -3 -3 -2 -2 -2 -1 -2 -2 -2 -3 -3 -3 -2 -1 0 1 2 2 3 3 2 0 -1 -1 -1 0 1 1 1 1 1 1 1 1 1 1 1 -0 -1 -1 -1 -1 -1 -0 1 1 1 1 0 0 0 0 0 0 0 0 0 0 -0 -0 -0 -0 -0 -0 -1 -1 -1 -1 -1 -2 -2 -2 -2 -2 -2 -2 -2 -2 -2 -2 -3 -3 -2 -2 -1
-2 -3 -3 -3 -4 -4 -5 -5 -5 -5 -6 -5 -4 -3 -3 -3 -4 -4 -5 -5 -5 -4 -4 -4 -4 -4 -4 -3 -1 -0 1 2 3 3 3 3 3 3 3 3 3 2 2 2 2 2 2 1 1 0 0 0 0 0 0 0 0 -0 -1 -1 -1 -0 0 1 1 0 -0 -0 -0 -0 0 0 0 1 0 0 0 0 -0 0 0 0 0 0 0 0 0 -0 -1 -1 -2 -2 -2 -2 -2 -2 -2 -2 -2 -2 -2 -2 -2
-1 -1 -2 -2 -2 -2 -3 -3 -2 -2 -3 -4 -4 -4 -2 -2 -1 -1 -1 -1 -1 -1 -1 -1 -1 -0 0 1 1 1 2 2 2 1 1 1 1 1 1 1 1 1 1 1 1 1 1 0 -0 -1 -1 -1 -1 -1 -2 -1 -1 -0 -1 -1 -0 0 1 1 0 -0 -1 -1 -1 -1 -1 -0 0 0 0 0 0 0 0 0 0 0 0 0 1 1 1 1 1 0 -0 -1 -1 -2 -2 -2 -2 -2 -2 -2 -2 -2 -2
-1 -1 -1 -1 -1 -2 -2 -1 -1 -1 -1 -1 -2 -2 -2 -1 -0 0 0 -0 0 0 1 1 0 0 0 0 0 -0 -0 0 -0 -0 -1 -1 -1 -1 -1 -1 -1 -1 -2 -1 -1 -1 -1 -1 -2 -2 -3 -2 -2 -2 -3 -3 -2 -2 -1 -1 -0 1 1 1 1 0 -0 -1 -2 -2 -2 -1 -1 -0 -0 0 0 0 -0 -0 -0 -0 -0 0 0 1 1 1 1 1 1 0 0 -0 -1 -1 -2 -2 -2 -2 -2 -2 -2
-1 -1 -0 -0 -1 -1 -1 -1 -0 -0 -1 -1 -1 -1 -1 -1 -1 -1 -1 -1 -1 -1 -1 -0 -1 -1 -1 -1 -1 -1 -1 -1 -1 -1 -1 -1 -2 -2 -2 -2 -1 -1 -1 -1 -1 -1 -1 -1 -2 -2 -2 -2 -2 -3 -4 -4 -3 -3 -2 -2 -0 1 2 2 2 2 1 -0 -1 -1 -2 -2 -1 -1 -1 -1 -0 -0 -0 -0 -0 -0 -0 -0 -0 -0 0 1 1 1 1 1 1 1 0 -0 -1 -1 -2 -2 -2 -2 -2
0 -0 1 0 -0 -1 -1 -1 -1 -1 -1 -1 -1 -1 -1 -1 -1 -1 -1 -1 -1 -1 -1 -1 -1 -0 -0 -0 -0 -0 0 -0 -1 -0 -0 -0 -1 -1 -1 -1 -0 0 0 0 -0 -0 -1 -0 -0 -1 -1 -1 -1 -2 -3 -3 -4 -4 -3 -3 -1 0 2 3 4 4 3 2 1 0 -1 -1 -1 -1 -1 -1 -1 -1 -1 -0 -0 -0 -0 -1 -1 -1 -1 -0 0 0 1 1 1 1 1 1 0 -0 -1 -1 -2 -2 -2
0 -0 1 0 -0 -1 -1 -1 -1 -1 -2 -2 -2 -2 -2 -1 -1 -1 -1 -1 -1 -1 -1 -0 0 1 1 1 1 1 1 1 0 0 1 1 1 0 -0 -0 0 1 1 1 1 0 -0 -0 -0 0 0 0 0 -1 -1 -2 -2 -3 -3 -3 -2 -1 1 2 3 4 5 4 3 2 1 0 -0 -1 -1 -0 -0 -0 -1 -0 -0 -0 -0 -0 -0 -0 -0 -0 -0 -0 0 0 0 1 1 1 1 1 1 0 -0 -1 -1
-1 -1 -1 -1 -1 -1 -1 -1 -1 -2 -2 -2 -2 -2 -2 -1 -0 0 0 -0 -0 -0 0 0 1 1 1 1 1 1 1 1 1 1 2 2 2 1 1 0 1 1 1 1 1 0 0 -0 -0 -0 1 1 0 -0 -1 -2 -2 -2 -2 -3 -3 -2 -1 1 2 3 4 4 4 4 3 2 1 0 -0 -0 -0 -0 -0 -0 -0 -0 -0 -0 -0 -0 0 0 0 0 0 0 0 0 0 1 1 1 1 1 1 1 0
-2 -2 -2 -1 -2 -2 -2 -1 -1 -1 -1 -1 -0 -0 -0 0 1 1 1 1 1 1 0 1 1 1 2 2 2 2 2 2 2 2 2 2 2 2 2 1 1 2 2 2 2 1 1 1 1 1 1 1 1 0 -1 -2 -3 -3 -3 -4 -4 -3 -2 -1 1 2 2 3 4 4 3 3 2 1 0 0 0 -0 -0 0 0 0 0 -0 -0 -0 0 0 1 1 1 1 0 0 0 0 0 1 1 1 2 2 1
-1 -1 -1 -0 0 1 1 1 1 1 0 -0 0 1 2 1 1 1 1 1 1 1 1 2 2 3 3 3 2 2 3 2 1 0 1 2 2 2 3 2 2 2 3 3 3 2 2 1 2 2 2 1 1 1 0 -1 -2 -3 -3 -4 -4 -4 -4 -2 -0 1 2 2 3 3 3 3 3 3 2 1 1 1 1 1 0 0 1 1 1 1 1 1 1 1 1 1 1 1 1 1 0 0 0 1 1 1 1
1 1 1 1 2 2 2 2 2 2 1 0 1 1 2 2 1 1 0 -0 -0 0 1 2 2 2 1 1 1 1 1 1 1 0 0 1 1 2 2 2 2 2 2 2 2 2 2 1 1 2 2 2 2 2 2 1 -0 -1 -2 -3 -4 -5 -4 -3 -1 0 1 2 2 3 3 3 3 3 3 3 2 2 2 2 2 1 1 2 2 2 2 2 2 2 2 2 2 2 2 2 1 1 1 1 1 1 1
1 2 2 2 2 2 2 2 2 3 2 1 1 1 1 1 1 1 0 0 0 1 1 1 1 0 -0 -0 -0 -0 -0 0 -0 -1 -1 -1 -1 -0 0 1 1 1 2 2 1 2 2 1 1 1 1 1 2 2 2 2 1 1 0 -0 -2 -3 -4 -3 -2 -1 0 1 2 3 3 3 3 3 3 3 3 3 2 2 2 2 2 2 2 2 2 2 3 3 3 3 3 3 2 2 2 2 2 2 2 1 1
2 2 2 2 2 2 2 2 2 3 2 1 0 0 0 1 1 1 1 1 1 1 1 1 0 0 0 -0 -0 -1 -1 -0 -1 -1 -2 -2 -2 -2 -2 -1 -0 -0 -0 -0 -1 -1 -1 -1 -1 -1 -1 -1 -0 0 1 1 1 1 1 0 -0 -2 -3 -4 -4 -3 -1 0 1 2 3 3 3 3 3 3 3 3 3 3 3 2 2 2 2 2 2 2 2 2 3 4 4 4 3 2 2 2 2 2 2 2 2
2 2 2 2 2 2 1 2 2 1 1 0 -0 -0 1 1 1 1 1 0 0 0 0 0 0 1 1 1 0 -0 -0 0 1 0 -1 -1 -2 -1 -1 -0 -0 -1 -1 -1 -0 -0 -0 -1 -1 -2 -2 -3 -3 -2 -1 -1 -1 -1 -1 -1 -1 -2 -3 -5 -6 -5 -4 -2 -0 1 2 3 3 3 3 3 4 4 4 3 3 3 2 2 2 2 2 1 1 1 2 3 4 4 4 3 3 2 2 2 2 2 2
1 1 1 1 1 1 1 2 1 0 0 0 -0 0 1 1 0 -0 -1 -1 -1 -0 1 1 1 1 0 -0 -0 -0 1 1 1 1 1 -0 -0 0 2 2 2 1 0 1 2 2 2 2 1 -0 -1 -2 -2 -2 -2 -2 -2 -2 -3 -3 -2 -2 -2 -4 -6 -8 -8 -6 -3 -1 0 2 2 3 4 4 4 4 4 4 4 4 3 2 2 2 3 2 2 1 1 1 2 3 4 4 5 4 3 2 1 1 1
1 1 1 1 1 1 2 1 0 0 1 1 0 -1 -0 -0 -1 -1 -2 -1 0 1 1 1 0 -0 -1 -2 -2 -1 -1 -1 -1 -1 -1 -1 -1 0 2 1 1 1 1 1 0 1 1 1 1 1 1 0 -0 -1 -0 -0 -1 -1 -2 -2 -1 -1 0 -0 -2 -5 -9 -9 -8 -6 -3 -2 -0 1 2 3 4 4 4 4 4 4 4 3 3 3 3 2 2 2 1 1 1 2 3 4 5 6 6 4 3 1 1
1 0 0 0 0 1 1 1 0 0 1 1 -0 -1 -1 -0 -0 -1 -2 -0 1 1 -0 -1 -1 -1 -1 -1 -1 -2 -2 -2 -2 -2 -1 -1 -1 -1 -1 -1 -1 -0 0 0 -0 -1 -2 -2 -1 -1 -0 0 1 1 1 1 2 1 1 1 0 -0 -0 1 2 1 -1 -5 -7 -8 -7 -6 -3 -1 0 1 2 3 3 4 4 4 4 4 4 3 3 2 3 3 3 2 2 1 1 3 3 4 7 7 6 5 4
0 0 -0 -0 0 1 1 1 1 1 0 -0 -0 -0 -1 0 1 1 -1 -0 0 -0 -1 -1 -1 -1 0 1 1 -0 -1 -1 -1 -1 -2 -2 -1 -1 -1 -1 -1 -0 -1 -1 -1 -2 -2 -2 -1 -0 -0 0 0 1 1 1 2 2 4 3 2 2 0 -0 0 2 5 3 0 -3 -7 -8 -6 -5 -2 -1 0 1 2 3 3 3 4 4 4 3 3 3 2 2 3 2 2 1 0 1 2 3 5 5 6 7 8
-0 -0 -0 0 0 1 1 1 1 0 -1 -0 -0 -1 -1 1 2 2 0 0 0 -0 -1 -2 -2 -1 0 1 1 0 -0 -0 -1 -1 -2 -2 -1 -1 -0 1 1 1 -1 -1 -1 -1 -0 -0 -0 0 0 0 -0 -0 -0 0 0 1 3 3 3 3 2 2 2 2 3 3 3 1 -2 -6 -7 -7 -6 -4 -3 -1 -0 1 2 2 3 3 3 3 3 3 3 2 2 2 1 1 1 0 0 1 4 3 3 5 7
-0 0 1 1 1 1 1 1 0 -0 -1 -1 -1 -1 0 1 2 2 0 1 1 0 -1 -1 -1 -1 -0 -1 -1 -1 -1 -1 -1 -1 -1 -0 0 1 2 2 2 1 -1 -1 -1 -1 -2 -1 -1 -1 0 1 1 1 1 -0 -0 -0 0 0 0 0 0 1 2 2 2 1 1 1 1 -1 -3 -6 -7 -7 -7 -6 -4 -2 -1 1 2 2 3 3 3 3 3 3 3 2 2 2 2 1 1 1 1 2 2 2 3
1 1 1 1 1 0 1 0 -0 -1 -1 -1 -1 -1 1 2 1 0 0 1 0 -1 -1 0 1 -0 -2 -3 -3 -3 -3 -2 -1 -0 -0 0 1 2 2 2 1 -0 -1 -2 -2 -3 -3 -3 -3 -2 -1 -1 0 1 0 -0 -0 -1 -1 -1 -1 -1 -1 -0 0 0 1 1 1 2 3 4 3 0 -4 -7 -8 -9 -8 -6 -5 -3 -1 1 2 3 3 3 3 3 3 3 3 3 2 2 1 1 1 1 1 2 2
1 1 1 0 0 -0 -0 -0 -1 -1 -1 -2 -2 -0 2 2 0 -1 -1 -1 -2 -2 -1 0 1 0 -2 -4 -4 -3 -4 -2 -1 0 0 0 1 2 1 0 -1 -2 -2 -3 -3 -4 -4 -3 -3 -2 -3 -2 -2 -1 -2 -1 -0 0 1 1 1 2 2 2 2 2 1 0 1 2 2 2 2 2 -0 -4 -7 -9 -10 -9 -8 -6 -5 -3 -1 0 2 3 3 4 4 4 4 3 3 3 2 1 0 0 -0 0 1
0 0 0 0 0 -0 -1 -1 -2 -2 -2 -3 -2 -0 2 1 -1 -2 -2 -3 -3 -3 -2 -1 -1 -2 -3 -4 -4 -4 -3 -2 -1 0 0 -1 -1 -1 -2 -3 -4 -4 -4 -4 -3 -3 -3 -2 -2 -2 -2 -3 -4 -4 -3 -1 0 1 3 3 3 4 4 5 5 4 1 -2 -3 -3 -3 -3 -3 -2 -1 -2 -4 -7 -9 -10 -10 -9 -8 -7 -5 -4 -3 -2 -0 2 3 4 4 4 4 4 3 2 1 0 -0 -1 -1
0 0 0 0 -0 -1 -2 -2 -2 -3 -3 -3 -3 -1 1 -0 -2 -3 -2 -2 -3 -3 -2 -2 -2 -3 -3 -4 -4 -3 -2 -1 -0 -0 -1 -2 -3 -5 -6 -6 -5 -5 -4 -2 -2 -1 -1 -2 -2 -3 -3 -3 -4 -4 -4 -2 -1 0 2 3 4 5 6 7 7 4 1 -1 -0 0 0 2 2 2 2 2 1 -1 -5 -7 -8 -9 -9 -8 -8 -8 -7 -7 -5 -4 -2 0 2 3 4 4 4 3 3 2 2 1 0
-0 -1 -1 -1 -1 -1 -2 -2 -2 -3 -3 -3 -3 -1 0 -1 -2 -3 -2 -2 -2 -2 -3 -3 -3 -3 -2 -3 -2 -2 1 2 1 -0 -2 -4 -6 -7 -7 -5 -3 -2 -1 -0 -0 -1 -2 -3 -3 -4 -4 -3 -3 -3 -3 -3 -2 -1 2 6 10 12 12 11 9 7 6 7 8 9 10 11 10 8 6 7 7 7 5 1 -2 -4 -5 -6 -6 -7 -7 -7 -8 -7 -6 -5 -2 -0 1 2 3 3 3 3 4 4 3
-1 -1 -1 -1 -2 -2 -2 -2 -2 -2 -3 -3 -2 -1 -0 -2 -2 -2 -2 -2 -2 -2 -3 -4 -4 -4 -2 -2 -1 -0 2 2 1 -1 -3 -6 -7 -7 -5 -2 0 1 -0 -2 -3 -4 -4 -4 -3 -2 -2 -2 -2 -1 -1 -1 2 5 10 15 17 18 15 12 11 12 13 13 13 13 12 11 10 10 10 12 12 12 11 11 9 7 4 2 -0 -2 -3 -4 -6 -7 -7 -7 -6 -5 -3 -1 0 1 1 2 2 3 3
-1 -1 -2 -1 -1 -1 -1 -2 -2 -2 -2 -2 -2 -1 -1 -2 -2 -2 -2 -2 -2 -3 -4 -4 -5 -4 -4 -3 -1 0 1 1 -1 -4 -7 -6 -4 -3 -1 -0 -0 -1 -3 -6 -6 -6 -4 -3 -2 -2 -2 -1 -0 2 5 9 13 15 15 13 11 9 7 7 7 8 9 7 6 4 3 2 2 4 8 11 12 12 10 11 13 14 13 10 8 6 5 2 -0 -3 -4 -5 -6 -7 -7 -6 -4 -3 -2 -1 -0 0 1
-1 -1 -1 -1 -1 -1 -1 -1 -1 -2 -2 -2 -2 -1 -0 -1 -1 -1 -1 -1 -2 -3 -3 -4 -4 -4 -4 -4 -2 -0 -0 -1 -2 -4 -6 -6 -3 0 2 -2 -6 -8 -7 -6 -5 -4 -1 -2 -3 -4 -3 1 5 10 15 17 16 11 5 1 -1 -3 -2 -2 -2 -2 -1 -2 -4 -5 -6 -5 -3 -0 4 7 8 8 8 7 8 10 13 15 14 12 9 7 6 5 3 1 -2 -4 -6 -7 -8 -7 -6 -4 -3 -2 -1
-1 -1 -1 -1 -1 -1 -1 -1 -2 -2 -2 -2 -2 -1 -0 -1 -1 -1 -0 0 -1 -3 -3 -3 -3 -4 -4 -4 -2 -1 -2 -3 -4 -4 -2 -3 -5 -6 -6 -7 -9 -10 -9 -5 -2 -2 -3 -5 -5 -2 3 9 14 16 15 10 4 -1 -5 -6 -7 -8 -8 -7 -8 -8 -8 -8 -8 -8 -8 -6 -4 -2 0 2 3 4 6 7 8 9 10 14 16 15 10 5 4 5 8 9 8 5 3 -0 -3 -6 -7 -7 -6 -5 -3
-2 -2 -2 -2 -2 -2 -2 -2 -2 -2 -2 -2 -1 -1 -1 -1 -1 -2 -1 -1 -2 -3 -4 -2 -2 -2 -4 -3 -2 -2 -3 -3 -4 -5 -4 -1 -3 -8 -15 -14 -11 -8 -6 -3 -3 -4 -8 -6 -1 8 16 17 13 7 1 -4 -7 -10 -11 -11 -12 -13 -15 -13 -12 -11 -11 -10 -9 -9 -8 -6 -4 -3 -1 -0 1 3 6 9 10 10 10 10 10 11 10 6 2 0 1 5 8 9 8 8 6 4 1 -3 -5 -6 -4
-2 -2 -2 -2 -2 -2 -2 -2 -3 -3 -3 -2 -2 -1 -2 -2 -2 -2 -3 -2 -2 -2 -4 -4 -3 -1 -2 -2 -2 -2 -4 -3 -2 -2 -3 -1 -0 -1 -4 -8 -10 -10 -8 -8 -8 -8 -8 -1 8 15 14 4 -5 -11 -15 -16 -16 -15 -14 -13 -12 -12 -11 -10 -9 -8 -7 -8 -8 -7 -6 -5 -3 -1 -0 1 2 2 3 5 6 6 6 6 6 6 8 10 11 10 9 6 2 -1 -1 1 4 6 6 6 3 -1 -0
-3 -3 -3 -2 -3 -3 -3 -3 -3 -3 -4 -4 -3 -2 -2 -2 -2 -2 -2 -2 -2 -2 -2 -3 -4 -4 -1 -3 -3 -3 -4 -3 -1 2 2 -2 -3 -2 1 -2 -5 -9 -14 -18 -18 -13 -5 2 3 -0 -10 -18 -22 -22 -20 -17 -14 -10 -7 -5 -4 -3 -3 -4 -5 -5 -6 -6 -5 -4 -3 -2 -1 -1 -1 -2 -2 -2 -2 -1 -1 -1 -0 0 1 3 5 7 9 12 15 16 14 10 5 3 -1 -4 -5 -5 -4 -2 1
-3 -3 -3 -3 -3 -3 -3 -4 -4 -3 -4 -4 -4 -3 -2 -2 -2 -2 -1 -1 -2 -3 -2 -2 -4 -4 -3 -4 -5 -5 -4 -3 -1 1 2 -2 -5 -7 -4 -1 1 1 -2 -6 -14 -18 -10 -7 -11 -18 -20 -20 -18 -14 -8 -3 0 1 1 0 -1 -4 -6 -6 -6 -5 -5 -4 -4 -3 -2 -3 -4 -5 -6 -7 -8 -9 -8 -6 -5 -4 -4 -4 -3 -3 -3 -2 0 2 5 9 12 14 14 9 3 -2 -5 -6 -5 -3 -2
-3 -3 -3 -3 -4 -4 -4 -4 -3 -3 -3 -3 -3 -2 -1 -1 -2 -2 -2 -2 -3 -3 -4 -3 -3 -4 -5 -5 -6 -6 -6 -3 -1 -1 -0 -1 -2 -2 -3 -2 0 1 1 5 1 -7 -16 -11 -12 -15 -17 -10 -5 -2 0 2 1 -1 -4 -5 -6 -7 -8 -6 -5 -3 -3 -3 -4 -5 -6 -7 -8 -9 -9 -10 -10 -11 -11 -11 -9 -8 -6 -6 -6 -6 -6 -6 -6 -5 -4 -3 0 5 10 12 12 10 7 3 1 -0 -2
-4 -4 -4 -4 -4 -4 -3 -3 -2 -2 -1 -2 -2 -2 -1 -2 -2 -2 -3 -3 -3 -3 -5 -4 -3 -2 -4 -4 -5 -5 -5 -2 -1 -1 -3 -1 1 4 5 -0 -6 -10 -9 -3 2 3 -6 -10 -12 -13 -14 -7 -3 -2 -4 -5 -6 -6 -8 -8 -7 -5 -3 -2 -1 -2 -3 -4 -5 -6 -7 -8 -9 -9 -8 -8 -8 -8 -9 -10 -11 -11 -10 -10 -9 -9 -9 -9 -9 -9 -9 -8 -5 -1 5 12 16 17 16 14 13 11 7
-4 -4 -4 -4 -3 -3 -2 -1 -1 -1 -1 -1 -2 -2 -2 -2 -3 -3 -3 -3 -3 -4 -5 -5 -3 -1 -1 -3 -3 -3 -3 -2 -0 -1 -4 -3 -0 4 7 7 5 1 -6 -6 -4 -2 -1 -6 -10 -14 -13 -7 -4 -4 -8 -8 -8 -7 -7 -5 -3 -1 1 1 0 -2 -4 -6 -7 -7 -6 -6 -7 -7 -7 -7 -6 -6 -6 -6 -7 -8 -9 -9 -9 -10 -10 -10 -10 -9 -9 -8 -8 -6 -3 2 7 11 12 11 10 9 8
-4 -3 -3 -3 -2 -1 -1 -1 -1 -1 -1 -2 -2 -3 -3 -3 -3 -4 -4 -4 -4 -3 -3 -3 -2 -1 1 -0 -1 -2 -2 -3 -2 -1 -3 -3 -2 1 4 5 8 11 14 11 3 -4 -8 -3 0 -3 -20 -14 -7 -3 -6 -6 -6 -6 -4 -3 -1 -0 0 -0 -2 -3 -5 -6 -7 -8 -7 -6 -6 -6 -6 -5 -5 -6 -5 -4 -4 -3 -3 -4 -4 -5 -7 -8 -7 -7 -7 -7 -8 -11 -12 -11 -9 -5 1 7 11 12 14
-3 -2 -2 -1 -1 -1 -1 -1 -2 -2 -2 -3 -3 -3 -3 -3 -3 -4 -4 -4 -3 -2 -1 -1 -0 -0 0 0 -0 -1 -1 -2 -3 -4 -2 -2 -2 -1 -1 -1 0 3 8 8 8 5 -2 -3 3 4 -12 -22 -16 -6 -3 -5 -6 -5 -4 -3 -3 -2 -3 -4 -5 -6 -6 -7 -7 -8 -8 -6 -5 -5 -5 -4 -4 -5 -5 -3 -3 -3 -2 -3 -3 -3 -4 -4 -4 -5 -6 -8 -10 -13 -16 -17 -15 -9 -1 7 11 13 14
-1 -1 -1 -1 -1 -1 -2 -2 -2 -3 -3 -3 -3 -3 -3 -2 -2 -2 -2 -2 -2 -1 -1 1 1 1 -0 -0 -0 -1 -1 -1 -2 -4 -5 -4 -3 -2 -4 -4 -4 -3 0 2 5 7 9 7 4 2 2 -10 -22 -24 -8 -3 -3 -4 -6 -6 -6 -5 -5 -6 -6 -7 -7 -7 -7 -6 -6 -6 -5 -4 -4 -4 -4 -5 -5 -5 -4 -4 -4 -4 -4 -4 -5 -4 -4 -4 -5 -6 -6 -7 -8 -5 4 14 18 11 5 2 2
-1 -1 -1 -1 -2 -2 -3 -3 -3 -3 -3 -3 -3 -3 -2 -1 -1 -1 -1 -0 0 0 0 1 1 1 -0 -0 -0 -1 -1 -1 -1 -2 -4 -4 -4 -4 -4 -4 -3 -3 -3 -2 -0 2 7 9 9 8 10 9 -3 -19 -27 -14 -6 -3 -4 -6 -7 -6 -5 -6 -7 -6 -6 -6 -5 -4 -4 -5 -5 -5 -5 -5 -4 -4 -5 -6 -5 -4 -4 -4 -4 -4 -5 -4 -3 -2 -2 0 1 4 9 25 34 32 18 10 7 7 6
-2 -2 -2 -2 -3 -3 -3 -3 -3 -2 -2 -1 -1 -1 -1 -1 -0 -0 0 0 0 0 0 0 0 0 -0 -0 -0 0 -1 -2 -1 -1 -2 -2 -3 -4 -4 -3 -3 -3 -2 -2 -2 -1 0 2 6 9 12 11 8 1 -13 -22 -19 -12 -6 -4 -5 -6 -5 -6 -6 -5 -4 -4 -4 -3 -3 -5 -6 -5 -5 -4 -4 -3 -4 -5 -5 -4 -4 -3 -2 -2 -2 -1 -0 2 3 5 6 13 28 38 29 14 8 10 10 10 8
Height
1500 1500 1499 1499 1499 1499 1499 1499 1499 1499 1499 1498 1499 1499 1499 1498 1498 1498 1497 1497 1496 1496 1496 1496 1495 1495 1495 1494 1494 1494 1493 1493 1493 1492 1492 1492 1491 1491 1491 1491 1491 1491 1490 1490 1490 1490 1489 1489 1490 1490 1490 1491 1491 1492 1492 1493 1493 1492 1491 1490 1490 1490 1490 1490 1489 1489 1489 1488 1488 1488 1488 1488 1488 1488 1488 1488 1488 1489 1489 1489 1489 1489 1489 1489 1489 1490 1490 1490 1490 1490 1490 1490 1491 1491 1491 1491 1491 1491 1491 1491 1491 1491 1491
1499 1499 1499 1499 1499 1499 1499 1499 1498 1498 1498 1498 1498 1498 1498 1498 1498 1498 1497 1497 1496 1496 1496 1496 1495 1495 1495 1494 1494 1494 1493 1493 1493 1492 1492 1491 1491 1491 1491 1491 1491 1490 1490 1490 1489 1489 1489 1489 1489 1489 1490 1490 1490 1491 1491 1491 1492 1491 1491 1490 1489 1489 1489 1488 1488 1488 1488 1487 1487 1487 1487 1487 1487 1487 1487 1487 1487 1488 1488 1488 1488 1488 1488 1489 1489 1489 1489 1489 1489 1489 1489 1489 1490 1490 1490 1490 1490 1490 1490 1490 1490 1490 1490
1499 1499 1499 1499 1499 1499 1499 1499 1498 1499 1498 1498 1498 1498 1498 1498 1498 1497 1497 1496 1496 1496 1496 1495 1495 1495 1494 1494 1494 1493 1493 1493 1492 1492 1491 1491 1491 1491 1491 1491 1490 1490 1490 1489 1489 1488 1488 1488 1489 1489 1489 1489 1490 1490 1491 1491 1491 1491 1491 1490 1489 1488 1488 1487 1487 1487 1486 1486 1486 1486 1486 1486 1486 1486 1486 1486 1486 1487 1487 1487 1487 1487 1487 1488 1488 1488 1488 1488 1488 1488 1488 1488 1488 1488 1488 1488 1488 1488 1489 1489 1489 1489 1489
1499 1499 1499 1499 1499 1499 1499 1499 1499 1499 1498 1498 1498 1498 1498 1498 1497 1497 1497 1496 1496 1496 1496 1495 1495 1494 1494 1494 1493 1493 1493 1492 1492 1491 1491 1491 1491 1491 1490 1490 1489 1489 1489 1488 1488 1488 1488 1488 1488 1488 1489 1489 1489 1490 1490 1490 1490 1490 1490 1490 1489 1488 1487 1486 1486 1486 1486 1485 1485 1485 1485 1485 1486 1486 1486 1486 1486 1486 1486 1486 1486 1486 1486 1487 1487 1487 1487 1487 1487 1487 1487 1487 1487 1487 1487 1487 1487 1487 1487 1487 1487 1487 1488
1498 1498 1499 1499 1499 1499 1499 1499 1499 1498 1498 1498 1498 1498 1498 1498 1497 1497 1497 1496 1496 1495 1495 1495 1495 1494 1494 1493 1493 1493 1492 1492 1491 1491 1491 1491 1490 1490 1490 1490 1489 1489 1489 1488 1488 1488 1488 1488 1488 1488 1488 1489 1489 1489 1489 1489 1489 1489 1489 1489 1488 1488 1487 1486 1485 1484 1484 1484 1484 1484 1484 1484 1484 1484 1485 1485 1485 1485 1485 1485 1485 1485 1486 1486 1486 1487 1487 1486 1486 1486 1486 1486 1486 1486 1486 1486 1486 1486 1486 1486 1486 1486 1486
1498 1498 1499 1499 1499 1498 1498 1498 1498 1498 1498 1498 1498 1498 1497 1497 1497 1497 1496 1496 1496 1495 1495 1494 1494 1494 1493 1493 1493 1492 1492 1491 1491 1491 1491 1490 1490 1490 1490 1489 1489 1489 1488 1488 1488 1488 1488 1488 1488 1488 1488 1488 1488 1488 1488 1488 1488 1488 1488 1488 1488 1487 1486 1485 1484 1483 1483 1483 1484 1484 1483 1483 1483 1483 1483 1483 1483 1484 1484 1484 1484 1484 1484 1485 1485 1485 1486 1486 1486 1485 1485 1485 1485 1485 1485 1485 1485 1485 1485 1485 1485 1485 1485
1499 1499 1499 1499 1499 1498 1498 1498 1498 1498 1498 1498 1497 1497 1497 1497 1496 1496 1496 1496 1495 1495 1494 1494 1494 1493 1493 1493 1492 1492 1491 1491 1491 1491 1490 1490 1490 1489 1489 1489 1488 1488 1488 1488 1487 1487 1487 1487 1487 1487 1487 1487 1487 1487 1487 1486 1487 1487 1487 1487 1486 1486 1485 1484 1483 1483 1483 1483 1483 1483 1482 1482 1482 1482 1482 1482 1482 1482 1483 1483 1483 1483 1483 1483 1484 1484 1485 1485 1485 1484 1484 1484 1484 1484 1484 1484 1484 1484 1484 1484 1484 1484 1484
1498 1499 1499 1499 1498 1498 1498 1498 1498 1498 1497 1497 1497 1497 1496 1496 1496 1496 1495 1495 1494 1494 1494 1493 1493 1493 1492 1492 1492 1491 1491 1491 1491 1490 1490 1490 1489 1489 1488 1488 1488 1488 1487 1487 1487 1486 1486 1486 1486 1486 1486 1486 1486 1486 1486 1486 1486 1486 1486 1486 1485 1485 1484 1483 1482 1482 1482 1482 1482 1482 1482 1481 1481 1481 1481 1481 1481 1481 1481 1481 1481 1481 1481 1482 1482 1483 1483 1483 1483 1483 1483 1483 1482 1482 1482 1482 1482 1482 1482 1482 1483 1483 1483
1498 1498 1498 1498 1498 1498 1498 1498 1497 1497 1497 1497 1496 1496 1496 1496 1495 1495 1495 1494 1494 1493 1493 1493 1492 1492 1492 1491 1491 1491 1491 1490 1490 1490 1489 1489 1489 1488 1488 1487 1487 1487 1486 1486 1486 1486 1485 1485 1485 1485 1485 1484 1484 1484 1484 1484 1484 1484 1484 1484 1484 1483 1483 1482 1482 1481 1481 1481 1481 1481 1481 1481 1481 1480 1480 1480 1480 1480 1480 1480 1480 1480 1480 1480 1481 1481 1481 1481 1482 1482 1482 1482 1482 1482 1481 1481 1481 1481 1481 1481 1481 1481 1481
1498 1498 1498 1498 1498 1497 1497 1497 1497 1497 1496 1496 1496 1496 1495 1495 1495 1494 1494 1494 1493 1493 1493 1492 1492 1491 1491 1491 1491 1490 1490 1490 1489 1489 1489 1488 1488 1488 1487 1487 1486 1486 1486 1485 1485 1485 1484 1484 1484 1484 1483 1483 1483 1483 1483 1483 1483 1483 1482 1482 1482 1481 1481 1481 1481 1481 1480 1480 1480 1480 1480 1480 1480 1480 1479 1479 1479 1478 1478 1478 1478 1478 1478 1479 1479 1479 1480 1480 1480 1480 1481 1481 1481 1481 1481 1481 1480 1480 1480 1480 1480 1480 1480
1497 1497 1497 1497 1497 1497 1497 1496 1496 1496 1496 1496 1495 1495 1495 1494 1494 1494 1493 1493 1493 1492 1492 1492 1491 1491 1491 1490 1490 1490 1489 1489 1489 1488 1488 1488 1487 1487 1486 1486 1486 1485 1485 1484 1484 1484 1483 1483 1483 1482 1482 1482 1481 1481 1481 1481 1481 1481 1481 1481 1480 1480 1479 1479 1479 1479 1479 1479 1479 1479 1479 1479 1478 1478 1478 1478 1478 1477 1477 1477 1476 1476 1477 1477 1477 1477 1478 1478 1478 1478 1479 1479 1479 1479 1480 1479 1479 1479 1479 1479 1479 1479 1479
1497 1497 1497 1496 1496 1496 1496 1496 1496 1495 1495 1495 1495 1495 1494 1494 1494 1493 1493 1493 1492 1492 1492 1491 1491 1491 1490 1490 1489 1489 1489 1488 1488 1488 1487 1487 1486 1486 1486 1486 1485 1485 1484 1484 1483 1483 1482 1482 1482 1481 1481 1480 1480 1480 1480 1480 1480 1480 1480 1479 1479 1478 1478 1478 1477 1477 1477 1477 1477 1477 1477 1477 1477 1477 1476 1476 1476 1476 1476 1476 1476 1475 1475 1475 1475 1475 1476 1476 1476 1476 1477 1477 1477 1478 1478 1478 1478 1478 1478 1477 1477 1477 1477
1496 1496 1496 1496 1496 1496 1495 1495 1495 1495 1495 1495 1494 1494 1494 1493 1493 1493 1493 1492 1492 1492 1491 1491 1491 1490 1490 1489 1489 1488 1488 1488 1487 1487 1486 1486 1486 1486 1485 1485 1484 1484 1483 1483 1482 1482 1481 1481 1481 1480 1480 1480 1480 1479 1479 1479 1479 1479 1479 1478 1478 1477 1477 1476 1476 1476 1476 1476 1476 1475 1475 1475 1475 1475 1475 1475 1475 1475 1475 1474 1474 1474 1474 1474 1474 1474 1474 1474 1474 1475 1475 1475 1476 1476 1476 1476 1476 1476 1476 1476 1476 1476 1476
1496 1496 1496 1496 1495 1495 1495 1495 1495 1495 1494 1494 1494 1493 1493 1493 1493 1492 1492 1492 1491 1491 1491 1490 1490 1490 1489 1489 1488 1488 1487 1487 1487 1486 1486 1486 1485 1485 1485 1484 1484 1483 1482 1482 1481 1481 1481 1480 1480 1480 1479 1479 1479 1479 1478 1478 1478 1477 1477 1477 1477 1476 1476 1476 1475 1475 1474 1474 1474 1474 1474 1474 1473 1473 1473 1473 1473 1473 1473 1473 1473 1473 1473 1472 1472 1472 1472 1472 1472 1473 1473 1473 1474 1474 1474 1475 1475 1475 1475 1475 1475 1475 1475
1496 1496 1495 1495 1495 1495 1495 1495 1494 1494 1494 1494 1493 1493 1493 1492 1492 1492 1491 1491 1491 1491 1490 1490 1489 1489 1489 1488 1488 1487 1487 1486 1486 1486 1485 1485 1485 1484 1484 1483 1483 1482 1482 1481 1481 1480 1480 1479 1479 1479 1479 1479 1478 1478 1477 1477 1476 1476 1476 1476 1476 1476 1475 1475 1474 1474 1473 1473 1472 1472 1472 1472 1472 1472 1471 1471 1471 1471 1471 1471 1471 1471 1471 1471 1471 1471 1471 1471 1471 1471 1471 1471 1472 1472 1472 1473 1473 1473 1473 1473 1474 1474 1474
1495 1495 1495 1495 1495 1495 1494 1494 1494 1494 1493 1493 1493 1493 1492 1492 1492 1491 1491 1491 1491 1490 1490 1489 1489 1488 1488 1488 1487 1487 1486 1486 1486 1485 1485 1484 1484 1483 1483 1482 1482 1482 1481 1481 1480 1480 1479 1479 1478 1478 1478 1478 1477 1477 1476 1476 1475 1475 1475 1475 1475 1474 1474 1474 1473 1472 1472 1471 1471 1471 1471 1470 1470 1470 1470 1470 1470 1469 1469 1469 1469 1469 1469 1469 1469 1469 1469 1469 1469 1469 1469 1470 1470 1470 1470 1471 1471 1471 1471 1471 1472 1472 1472
1495 1495 1495 1495 1494 1494 1494 1494 1494 1493 1493 1493 1492 1492 1492 1491 1491 1491 1491 1490 1490 1490 1489 1489 1488 1488 1487 1487 1486 1486 1486 1485 1485 1484 1484 1483 1483 1482 1482 1481 1481 1481 1480 1479 1479 1478 1478 1478 1477 1477 1477 1477 1476 1476 1475 1475 1474 1473 1473 1473 1473 1473 1473 1472 1472 1471 1471 1471 1470 1470 1469 1469 1469 1468 1468 1468 1468 1468 1468 1467 1467 1467 1467 1467 1467 1467 1467 1467 1468 1468 1468 1468 1468 1468 1468 1468 1469 1469 1470 1470 1470 1470 1470
1494 1494 1494 1494 1494 1494 1494 1493 1493 1493 1493 1492 1492 1492 1491 1491 1491 1490 1490 1490 1489 1489 1488 1488 1487 1487 1486 1486 1486 1485 1485 1484 1483 1483 1482 1481 1481 1481 1480 1480 1480 1479 1479 1478 1478 1477 1477 1477 1477 1476 1476 1476 1475 1475 1474 1473 1473 1472 1472 1471 1471 1471 1471 1471 1471 1471 1470 1469 1469 1468 1468 1467 1467 1467 1466 1466 1466 1466 1466 1466 1466 1466 1465 1465 1465 1465 1465 1465 1466 1466 1466 1466 1466 1466 1466 1466 1466 1467 1467 1467 1468 1468 1468
1495 1494 1494 1494 1494 1493 1493 1493 1493 1492 1492 1492 1491 1491 1491 1491 1490 1490 1489 1489 1489 1488 1488 1487 1487 1486 1486 1485 1485 1484 1484 1483 1482 1482 1481 1481 1481 1480 1479 1479 1478 1478 1477 1477 1476 1476 1476 1476 1476 1476 1475 1475 1474 1474 1473 1472 1471 1471 1471 1470 1470 1470 1470 1470 1470 1469 1469 1468 1468 1467 1467 1466 1466 1465 1465 1465 1464 1464 1464 1464 1464 1464 1463 1463 1463 1463 1463 1463 1463 1463 1463 1464 1464 1464 1464 1464 1464 1464 1465 1465 1466 1466 1466
1494 1494 1494 1493 1493 1493 1492 1492 1492 1492 1491 1491 1491 1491 1490 1490 1490 1489 1489 1488 1488 1487 1487 1486 1486 1486 1485 1485 1484 1483 1482 1482 1482 1481 1481 1481 1481 1480 1479 1478 1477 1477 1476 1476 1476 1476 1476 1475 1475 1474 1474 1473 1473 1472 1472 1471 1470 1470 1469 1469 1469 1468 1468 1468 1468 1468 1467 1467 1466 1466 1466 1465 1465 1464 1463 1463 1462 1462 1462 1462 1462 1461 1461 1461 1461 1461 1461 1461 1461 1461 1461 1461 1461 1461 1462 1462 1462 1462 1462 1462 1463 1463 1463
1493 1493 1493 1493 1492 1492 1492 1491 1491 1491 1491 1490 1490 1490 1489 1489 1488 1488 1487 1487 1486 1486 1486 1485 1485 1484 1484 1483 1483 1482 1482 1482 1482 1482 1481 1481 1481 1480 1479 1478 1478 1477 1477 1476 1476 1476 1475 1475 1474 1473 1473 1472 1471 1471 1471 1470 1469 1469 1468 1468 1467 1467 1467 1467 1466 1466 1466 1465 1465 1465 1464 1464 1463 1463 1462 1462 1461 1461 1460 1460 1460 1459 1459 1459 1459 1459 1459 1459 1459 1459 1459 1459 1459 1459 1459 1460 1460 1460 1460 1460 1460 1461 1461
1493 1493 1493 1493 1492 1492 1491 1491 1491 1490 1490 1489 1489 1489 1489 1488 1488 1487 1487 1486 1486 1485 1485 1484 1484 1483 1483 1483 1483 1483 1483 1482 1482 1481 1481 1481 1480 1480 1479 1479 1478 1477 1477 1476 1476 1475 1475 1474 1473 1472 1471 1471 1470 1470 1469 1468 1468 1467 1466 1466 1466 1466 1465 1465 1465 1465 1464 1464 1463 1463 1462 1462 1462 1461 1461 1461 1460 1459 1459 1458 1458 1457 1457 1457 1456 1456 1456 1456 1456 1456 1456 1456 1456 1456 1457 1457 1457 1457 1458 1458 1458 1458 1458
1493 1493 1493 1493 1492 1492 1491 1491 1491 1490 1490 1489 1489 1488 1488 1488 1488 1487 1487 1486 1486 1486 1486 1485 1485 1484 1484 1483 1483 1483 1482 1482 1481 1481 1480 1480 1479 1479 1478 1478 1477 1477 1476 1476 1475 1475 1474 1473 1472 1471 1470 1470 1469 1468 1467 1467 1466 1466 1465 1465 1464 1464 1464 1463 1463 1463 1462 1462 1461 1461 1461 1460 1460 1459 1459 1459 1458 1458 1457 1457 1456 1456 1455 1455 1454 1454 1454 1454 1454 1454 1454 1454 1454 1454 1454 1454 1455 1455 1455 1455 1456 1456 1456
1493 1493 1493 1493 1492 1492 1491 1491 1491 1490 1490 1489 1489 1488 1488 1488 1488 1487 1487 1486 1486 1486 1486 1485 1485 1484 1484 1483 1483 1482 1482 1481 1481 1480 1480 1479 1478 1478 1477 1477 1476 1476 1475 1475 1474 1473 1473 1472 1471 1470 1469 1468 1467 1466 1466 1465 1465 1464 1463 1463 1462 1462 1462 1462 1461 1461 1461 1460 1460 1459 1459 1458 1458 1457 1457 1456 1456 1456 1456 1455 1455 1454 1454 1453 1453 1452 1452 1452 1451 1451 1451 1451 1451 1451 1451 1452 1452 1452 1452 1452 1453 1453 1453
1493 1493 1493 1492 1492 1492 1491 1491 1491 1490 1490 1489 1489 1488 1488 1488 1487 1487 1487 1486 1486 1485 1485 1485 1484 1484 1483 1483 1482 1481 1481 1481 1480 1479 1479 1478 1477 1477 1476 1476 1475 1475 1474 1473 1473 1472 1471 1470 1470 1469 1468 1467 1466 1465 1464 1464 1463 1462 1462 1461 1461 1461 1460 1460 1460 1459 1459 1458 1458 1457 1456 1456 1456 1455 1455 1455 1454 1454 1453 1453 1453 1452 1452 1451 1451 1451 1450 1450 1449 1449 1449 1449 1449 1449 1449 1449 1449 1449 1449 1450 1450 1450 1451
1493 1493 1492 1492 1492 1491 1491 1491 1490 1490 1489 1489 1488 1488 1488 1488 1487 1487 1486 1486 1485 1485 1484 1484 1484 1483 1483 1482 1481 1481 1480 1480 1479 1478 1478 1477 1476 1476 1475 1475 1474 1473 1473 1472 1471 1471 1470 1469 1468 1467 1466 1466 1465 1464 1463 1462 1461 1461 1460 1460 1459 1459 1458 1458 1458 1457 1457 1456 1456 1455 1455 1454 1453 1453 1452 1452 1452 1451 1451 1451 1450 1450 1450 1449 1449 1449 1448 1448 1447 1447 1447 1446 1446 1446 1446 1446 1446 1446 1446 1446 1447 1447 1447
1493 1492 1492 1492 1491 1491 1491 1490 1490 1489 1489 1488 1488 1488 1487 1487 1487 1486 1486 1485 1485 1484 1484 1483 1483 1482 1482 1481 1481 1480 1480 1479 1478 1477 1477 1476 1476 1475 1474 1473 1473 1472 1471 1471 1470 1469 1468 1467 1466 1466 1465 1464 1463 1462 1461 1461 1460 1459 1458 1458 1457 1457 1456 1456 1456 1456 1455 1455 1454 1453 1452 1452 1451 1451 1450 1450 1449 1449 1448 1448 1448 1447 1447 1447 1446 1446 1446 1446 1446 1445 1445 1444 1444 1444 1444 1443 1444 1444 1444 1444 1444 1444 1444
1492 1492 1492 1492 1491 1491 1491 1490 1490 1489 1489 1488 1488 1487 1487 1486 1486 1486 1485 1485 1484 1484 1483 1483 1482 1482 1481 1481 1480 1479 1479 1478 1477 1477 1476 1476 1475 1474 1473 1472 1471 1471 1470 1469 1468 1467 1467 1466 1465 1464 1464 1463 1462 1461 1460 1459 1458 1457 1456 1456 1455 1455 1455 1454 1454 1453 1453 1452 1452 1451 1451 1450 1449 1448 1448 1447 1446 1446 1446 1445 1445 1445 1444 1444 1444 1444 1443 1443 1443 1443 1442 1442 1442 1441 1441 1441 1441 1441 1441 1441 1441 1441 1441
1492 1492 1492 1491 1491 1491 1490 1490 1489 1489 1488 1488 1487 1487 1486 1486 1486 1485 1485 1484 1484 1483 1483 1482 1482 1481 1481 1480 1480 1479 1478 1478 1477 1476 1476 1475 1474 1473 1472 1471 1471 1470 1469 1469 1468 1466 1466 1465 1464 1463 1462 1461 1461 1460 1458 1457 1456 1456 1455 1454 1453 1453 1452 1452 1452 1451 1451 1450 1450 1449 1449 1448 1447 1446 1446 1445 1444 1444 1443 1443 1442 1442 1442 1441 1441 1441 1441 1440 1440 1440 1440 1440 1440 1439 1439 1439 1439 1438 1438 1438 1438 1438 1438
1492 1492 1492 1491 1491 1491 1490 1490 1489 1488 1488 1487 1487 1486 1486 1486 1485 1485 1484 1484 1483 1483 1482 1482 1481 1481 1480 1480 1479 1478 1478 1477 1476 1475 1475 1474 1473 1472 1472 1471 1470 1469 1468 1468 1467 1466 1465 1464 1463 1462 1461 1460 1459 1458 1457 1456 1455 1454 1453 1452 1451 1451 1450 1450 1450 1449 1449 1448 1448 1447 1447 1446 1446 1445 1444 1443 1442 1442 1441 1441 1440 1439 1439 1439 1438 1438 1438 1437 1437 1437 1437 1437 1437 1437 1437 1436 1436 1436 1436 1436 1436 1436 1436
1492 1492 1492 1491 1491 1491 1490 1489 1489 1488 1488 1487 1487 1486 1486 1486 1485 1484 1484 1483 1483 1482 1482 1481 1481 1480 1479 1479 1478 1477 1476 1476 1475 1474 1473 1473 1472 1471 1471 1470 1469 1468 1467 1467 1466 1465 1464 1463 1462 1461 1460 1459 1458 1457 1456 1455 1454 1453 1451 1451 1450 1449 1448 1448 1447 1447 1447 1446 1446 1445 1445 1444 1443 1443 1442 1441 1441 1440 1439 1438 1438 1437 1436 1436 1436 1436 1435 1435 1435 1435 1434 1434 1434 1434 1434 1434 1434 1434 1434 1433 1433 1433 1433
1492 1492 1491 1491 1491 1490 1490 1489 1489 1488 1488 1487 1486 1486 1486 1485 1485 1484 1483 1483 1482 1481 1481 1480 1480 1479 1478 1477 1477 1476 1475 1475 1473 1472 1472 1471 1471 1470 1469 1469 1468 1467 1466 1466 1465 1464 1463 1462 1461 1460 1459 1458 1457 1456 1455 1454 1453 1451 1451 1449 1448 1447 1446 1446 1445 1445 1444 1444 1444 1443 1443 1442 1441 1441 1440 1439 1438 1438 1437 1436 1436 1435 1434 1434 1433 1433 1433 1432 1432 1432 1432 1431 1431 1431 1431 1431 1431 1431 1431 1431 1431 1431 1431
1492 1491 1491 1491 1490 1490 1489 1489 1489 1488 1487 1487 1486 1486 1485 1485 1484 1484 1483 1482 1482 1481 1481 1480 1479 1478 1478 1477 1476 1475 1475 1474 1473 1471 1471 1470 1469 1469 1468 1467 1467 1466 1465 1465 1464 1463 1462 1461 1460 1459 1458 1457 1456 1456 1454 1453 1452 1451 1449 1448 1447 1446 1445 1444 1443 1442 1442 1442 1441 1441 1440 1440 1439 1438 1438 1437 1436 1436 1435 1434 1433 1433 1432 1431 1431 1431 1430 1430 1430 1430 1430 1429 1429 1429 1428 1428 1427 1427 1428 1428 1428 1428 1428
1491 1491 1491 1490 1490 1490 1489 1489 1488 1488 1487 1486 1486 1485 1485 1485 1484 1483 1483 1482 1481 1481 1480 1479 1479 1478 1478 1477 1476 1475 1474 1473 1472 1471 1470 1470 1469 1468 1467 1466 1466 1465 1464 1464 1463 1462 1461 1460 1459 1458 1457 1456 1455 1454 1453 1452 1451 1450 1448 1447 1446 1445 1443 1442 1441 1440 1440 1439 1439 1438 1438 1437 1437 1436 1436 1435 1434 1433 1433 1432 1431 1430 1430 1429 1429 1428 1428 1427 1427 1427 1427 1427 1427 1426 1426 1426 1425 1425 1424 1425 1425 1425 1425
1491 1490 1490 1490 1490 1489 1489 1488 1488 1487 1486 1486 1486 1485 1485 1484 1483 1483 1482 1481 1481 1480 1480 1479 1478 1478 1477 1476 1475 1474 1473 1473 1472 1471 1470 1469 1468 1468 1467 1466 1465 1465 1464 1463 1462 1461 1461 1459 1458 1457 1456 1455 1454 1453 1452 1451 1450 1449 1447 1446 1445 1444 1442 1441 1439 1438 1437 1437 1436 1436 1436 1435 1435 1434 1433 1433 1432 1431 1431 1430 1429 1428 1427 1427 1426 1426 1426 1425 1425 1425 1425 1424 1424 1424 1424 1423 1423 1423 1422 1421 1421 1421 1422
1490 1490 1490 1489 1489 1489 1488 1488 1487 1487 1486 1486 1485 1485 1484 1483 1483 1482 1481 1481 1480 1480 1479 1479 1478 1477 1476 1475 1474 1473 1473 1472 1471 1470 1470 1469 1468 1467 1466 1466 1465 1464 1463 1462 1461 1461 1460 1459 1457 1456 1455 1454 1453 1452 1451 1450 1449 1447 1446 1445 1444 1443 1442 1441 1439 1437 1436 1435 1434 1433 1433 1433 1432 1432 1431 1431 1430 1430 1429 1428 1427 1426 1426 1425 1424 1424 1423 1423 1422 1422 1422 1422 1422 1421 1421 1421 1421 1421 1420 1420 1419 1419 1419
1490 1490 1489 1489 1489 1489 1488 1488 1487 1487 1486 1486 1485 1484 1484 1483 1482 1481 1481 1481 1480 1480 1479 1478 1477 1476 1475 1474 1473 1473 1472 1471 1470 1469 1469 1468 1467 1466 1465 1465 1464 1463 1462 1461 1460 1459 1458 1457 1456 1455 1454 1453 1452 1451 1450 1449 1448 1446 1445 1444 1443 1442 1441 1440 1439 1437 1436 1434 1433 1432 1431 1431 1430 1430 1429 1429 1428 1428 1427 1426 1426 1425 1424 1423 1422 1422 1421 1421 1420 1420 1419 1419 1419 1419 1418 1418 1418 1418 1417 1417 1417 1417 1416
1490 1489 1489 1489 1489 1489 1488 1488 1487 1486 1486 1485 1484 1484 1483 1483 1482 1481 1481 1480 1480 1479 1478 1477 1476 1476 1475 1474 1473 1472 1471 1470 1470 1469 1468 1467 1466 1465 1464 1463 1463 1462 1461 1460 1459 1458 1457 1456 1455 1454 1453 1452 1451 1450 1449 1448 1447 1446 1445 1443 1442 1441 1440 1439 1438 1437 1436 1434 1432 1431 1430 1429 1428 1428 1427 1427 1426 1426 1426 1425 1424 1424 1423 1422 1421 1420 1420 1419 1418 1418 1417 1417 1416 1416 1416 1416 1416 1415 1415 1415 1415 1415 1414
1489 1489 1489 1489 1489 1488 1488 1488 1487 1486 1485 1485 1484 1484 1483 1483 1482 1482 1481 1480 1480 1479 1478 1477 1476 1475 1474 1474 1473 1472 1471 1470 1469 1468 1467 1466 1465 1464 1463 1462 1462 1461 1460 1459 1458 1457 1456 1455 1454 1453 1451 1451 1450 1448 1447 1446 1446 1445 1444 1442 1441 1440 1439 1438 1437 1436 1435 1434 1432 1431 1429 1428 1427 1426 1426 1425 1425 1424 1424 1423 1423 1422 1421 1421 1420 1419 1418 1417 1416 1416 1415 1415 1414 1414 1414 1413 1413 1412 1412 1412 1412 1412 1412
1489 1489 1489 1489 1489 1488 1488 1487 1486 1486 1485 1484 1484 1483 1483 1482 1482 1481 1481 1480 1479 1478 1477 1476 1476 1475 1474 1473 1472 1471 1470 1470 1469 1467 1466 1466 1465 1464 1463 1462 1461 1460 1459 1458 1456 1456 1454 1453 1452 1451 1450 1449 1448 1447 1446 1445 1444 1443 1442 1441 1440 1439 1438 1437 1436 1435 1434 1432 1431 1430 1429 1427 1426 1425 1424 1423 1422 1422 1421 1421 1421 1420 1420 1419 1418 1417 1416 1416 1415 1414 1414 1413 1412 1412 1411 1411 1411 1410 1410 1409 1409 1409 1409
1490 1489 1489 1489 1488 1488 1487 1486 1486 1485 1485 1484 1483 1483 1483 1482 1482 1481 1481 1480 1479 1478 1477 1476 1476 1474 1473 1472 1471 1471 1470 1469 1468 1467 1466 1465 1464 1463 1462 1461 1460 1459 1457 1456 1455 1454 1453 1452 1451 1450 1449 1448 1447 1446 1445 1444 1443 1441 1441 1439 1438 1437 1436 1435 1434 1433 1432 1431 1430 1429 1428 1427 1426 1424 1423 1422 1421 1420 1419 1419 1418 1418 1417 1417 1416 1416 1415 1414 1414 1413 1412 1411 1411 1410 1410 1409 1408 1408 1408 1407 1406 1406 1406
1489 1489 1489 1488 1488 1487 1486 1486 1485 1485 1484 1483 1483 1483 1483 1482 1481 1481 1480 1479 1478 1477 1476 1476 1475 1474 1473 1471 1471 1470 1469 1468 1467 1466 1465 1464 1463 1462 1461 1460 1459 1457 1456 1455 1454 1452 1451 1450 1449 1448 1447 1446 1446 1444 1443 1442 1441 1440 1439 1438 1437 1436 1435 1434 1433 1432 1431 1430 1429 1428 1427 1426 1425 1424 1422 1421 1420 1418 1417 1417 1416 1415 1415 1415 1414 1414 1413 1412 1412 1411 1411 1410 1409 1409 1408 1407 1406 1406 1406 1405 1405 1404 1404
1489 1489 1488 1488 1487 1487 1486 1486 1485 1484 1484 1483 1483 1482 1482 1482 1481 1480 1479 1478 1477 1476 1476 1475 1474 1473 1472 1471 1470 1469 1468 1466 1466 1465 1464 1463 1462 1461 1460 1458 1457 1456 1454 1453 1452 1451 1450 1449 1448 1447 1446 1445 1444 1442 1441 1441 1440 1439 1438 1436 1436 1435 1434 1433 1432 1431 1430 1429 1428 1427 1426 1425 1424 1423 1421 1420 1418 1417 1416 1415 1414 1413 1412 1412 1411 1411 1411 1410 1410 1409 1409 1408 1407 1407 1406 1406 1405 1404 1403 1403 1402 1402 1401
1489 1488 1488 1488 1487 1486 1486 1485 1484 1484 1483 1482 1482 1482 1482 1481 1480 1479 1478 1477 1476 1476 1475 1474 1473 1472 1471 1470 1469 1468 1467 1466 1465 1464 1463 1461 1460 1459 1458 1456 1455 1454 1453 1451 1451 1450 1449 1447 1446 1446 1444 1443 1442 1441 1440 1439 1438 1437 1436 1435 1434 1433 1432 1431 1431 1430 1429 1427 1426 1426 1425 1423 1422 1421 1420 1419 1417 1415 1414 1412 1411 1411 1410 1409 1409 1408 1408 1408 1407 1407 1406 1406 1405 1405 1404 1404 1403 1402 1401 1401 1400 1399 1399
1488 1488 1488 1487 1487 1486 1485 1485 1484 1483 1482 1482 1481 1481 1481 1480 1479 1478 1477 1476 1476 1475 1474 1473 1472 1471 1470 1469 1468 1467 1466 1465 1464 1463 1461 1460 1459 1457 1456 1455 1453 1452 1451 1451 1450 1448 1447 1446 1445 1444 1443 1442 1441 1439 1438 1437 1436 1436 1435 1434 1433 1432 1431 1431 1430 1429 1428 1427 1426 1425 1424 1423 1422 1421 1419 1418 1416 1414 1413 1411 1410 1409 1408 1407 1406 1406 1405 1405 1404 1404 1404 1403 1403 1402 1402 1401 1401 1400 1400 1399 1398 1397 1396
1488 1488 1487 1487 1486 1486 1485 1484 1483 1482 1482 1481 1481 1481 1480 1479 1478 1477 1476 1475 1474 1473 1473 1471 1470 1469 1469 1468 1467 1466 1466 1465 1463 1462 1460 1458 1457 1455 1454 1453 1452 1451 1451 1449 1448 1447 1446 1445 1444 1442 1441 1440 1439 1438 1437 1436 1435 1435 1434 1433 1432 1431 1430 1429 1429 1428 1427 1426 1425 1424 1423 1422 1421 1420 1418 1417 1416 1414 1412 1411 1410 1408 1406 1406 1405 1404 1403 1402 1401 1401 1401 1401 1400 1400 1400 1399 1398 1398 1397 1397 1396 1395 1395
1488 1487 1487 1486 1486 1485 1484 1483 1483 1482 1481 1481 1480 1480 1479 1478 1477 1476 1475 1474 1473 1472 1471 1470 1469 1468 1467 1467 1466 1466 1465 1464 1462 1461 1458 1457 1456 1454 1453 1452 1451 1451 1449 1448 1446 1445 1444 1443 1442 1441 1440 1439 1438 1437 1436 1435 1435 1434 1432 1431 1430 1429 1428 1427 1427 1426 1425 1424 1423 1422 1421 1420 1419 1418 1417 1416 1415 1413 1412 1411 1410 1408 1406 1405 1403 1402 1401 1401 1400 1399 1398 1398 1397 1397 1397 1396 1396 1396 1395 1395 1394 1393 1393
1487 1487 1486 1486 1485 1484 1484 1483 1482 1481 1481 1480 1479 1479 1478 1477 1476 1476 1475 1474 1472 1471 1470 1469 1468 1467 1466 1466 1466 1465 1464 1463 1461 1460 1457 1456 1454 1453 1453 1451 1450 1448 1447 1446 1445 1444 1443 1442 1441 1440 1439 1438 1437 1436 1436 1435 1433 1432 1430 1429 1428 1427 1426 1426 1425 1424 1423 1422 1421 1420 1420 1419 1418 1417 1416 1415 1413 1412 1411 1410 1408 1407 1406 1405 1403 1401 1400 1399 1398 1397 1396 1395 1395 1394 1394 1393 1393 1393 1392 1392 1391 1391 1390
1487 1486 1486 1485 1485 1484 1483 1482 1481 1481 1480 1479 1479 1478 1478 1477 1476 1475 1474 1473 1472 1471 1469 1468 1468 1467 1466 1465 1465 1464 1463 1462 1460 1459 1457 1455 1453 1451 1450 1449 1448 1446 1445 1445 1444 1442 1441 1441 1439 1438 1438 1437 1436 1436 1434 1432 1431 1430 1428 1427 1426 1426 1425 1424 1423 1423 1422 1421 1420 1419 1418 1417 1416 1416 1414 1413 1412 1411 1410 1408 1407 1406 1405 1404 1402 1400 1399 1397 1396 1395 1394 1394 1393 1392 1391 1391 1390 1390 1390 1389 1389 1388 1387
1486 1486 1485 1484 1484 1483 1482 1481 1481 1480 1480 1479 1478 1478 1477 1476 1475 1474 1473 1472 1471 1470 1469 1468 1467 1466 1466 1465 1464 1463 1462 1461 1459 1458 1456 1455 1454 1451 1448 1446 1446 1445 1444 1443 1443 1441 1440 1439 1438 1438 1437 1436 1435 1433 1432 1431 1430 1429 1428 1427 1426 1425 1424 1424 1423 1422 1421 1420 1419 1418 1417 1416 1415 1414 1413 1412 1411 1409 1408 1407 1406 1405 1403 1402 1401 1399 1398 1396 1395 1394 1393 1392 1391 1391 1390 1389 1388 1387 1386 1386 1386 1385 1385
1486 1485 1485 1484 1483 1482 1482 1481 1480 1480 1479 1478 1478 1477 1476 1476 1475 1473 1473 1472 1471 1470 1468 1467 1466 1466 1466 1465 1464 1463 1462 1461 1459 1458 1456 1455 1454 1453 1450 1447 1444 1443 1442 1441 1441 1440 1439 1438 1438 1437 1436 1434 1433 1432 1431 1430 1429 1428 1427 1427 1426 1425 1424 1422 1421 1421 1420 1418 1417 1416 1416 1415 1414 1412 1411 1410 1409 1408 1407 1405 1404 1403 1401 1400 1399 1398 1397 1396 1395 1394 1392 1391 1390 1388 1387 1386 1386 1385 1384 1383 1382 1382 1381
1485 1485 1484 1483 1483 1482 1481 1481 1480 1479 1478 1478 1477 1476 1476 1475 1474 1473 1472 1471 1470 1469 1468 1467 1466 1466 1465 1465 1464 1463 1462 1461 1460 1459 1458 1456 1454 1452 1451 1448 1445 1442 1440 1438 1437 1437 1438 1437 1436 1436 1435 1433 1432 1431 1431 1430 1429 1428 1427 1426 1425 1424 1422 1421 1420 1419 1418 1417 1416 1415 1414 1413 1412 1411 1410 1408 1407 1406 1405 1404 1402 1401 1400 1399 1397 1396 1395 1394 1394 1393 1392 1391 1389 1387 1386 1385 1384 1383 1382 1381 1381 1380 1378
1485 1484 1484 1483 1482 1481 1481 1480 1479 1479 1478 1477 1476 1476 1475 1474 1473 1472 1472 1471 1470 1469 1468 1467 1466 1466 1465 1464 1463 1462 1461 1461 1460 1459 1458 1456 1454 1451 1450 1449 1447 1445 1442 1439 1436 1434 1435 1436 1435 1434 1434 1433 1432 1431 1430 1429 1428 1426 1426 1425 1423 1422 1421 1420 1419 1418 1416 1415 1414 1413 1412 1411 1410 1409 1408 1406 1405 1404 1403 1402 1401 1400 1398 1397 1396 1394 1393 1392 1391 1390 1389 1389 1388 1386 1385 1384 1382 1381 1380 1379 1378 1377 1376
1484 1484 1483 1482 1482 1481 1480 1480 1479 1478 1477 1476 1476 1475 1475 1474 1473 1472 1471 1471 1470 1469 1468 1467 1466 1466 1465 1464 1462 1462 1461 1460 1460 1459 1458 1457 1455 1452 1450 1449 1448 1446 1445 1443 1439 1435 1433 1434 1433 1432 1431 1431 1431 1429 1428 1428 1427 1426 1424 1423 1422 1421 1420 1419 1417 1416 1415 1414 1413 1411 1410 1409 1408 1407 1406 1405 1403 1402 1401 1400 1399 1398 1396 1395 1394 1392 1391 1390 1388 1387 1386 1386 1385 1384 1384 1382 1381 1380 1378 1377 1376 1374 1373
1484 1483 1483 1482 1481 1481 1480 1479 1478 1478 1477 1476 1476 1475 1474 1474 1473 1472 1471 1471 1470 1469 1468 1467 1466 1466 1465 1463 1462 1461 1460 1460 1459 1459 1457 1456 1456 1455 1453 1450 1447 1445 1443 1442 1441 1438 1435 1434 1432 1431 1429 1430 1429 1428 1427 1426 1425 1424 1423 1422 1421 1420 1418 1417 1416 1415 1414 1412 1411 1410 1409 1407 1406 1405 1404 1403 1401 1400 1399 1398 1397 1396 1394 1393 1392 1390 1389 1387 1386 1385 1384 1383 1382 1381 1381 1380 1379 1377 1376 1375 1373 1371 1370
1484 1483 1482 1481 1481 1480 1479 1479 1478 1477 1476 1476 1475 1475 1474 1473 1473 1472 1471 1471 1470 1469 1468 1467 1466 1466 1465 1463 1462 1461 1460 1459 1459 1458 1457 1456 1455 1455 1454 1452 1450 1447 1444 1441 1440 1439 1437 1436 1432 1428 1426 1428 1428 1426 1425 1425 1424 1423 1421 1421 1420 1418 1417 1416 1415 1413 1412 1411 1409 1408 1407 1406 1404 1402 1401 1400 1399 1398 1397 1396 1395 1393 1392 1391 1390 1388 1386 1385 1384 1383 1382 1381 1380 1379 1378 1377 1376 1375 1373 1372 1370 1369 1367
1483 1482 1481 1481 1480 1480 1479 1478 1477 1477 1476 1476 1475 1474 1474 1473 1472 1471 1471 1470 1469 1468 1467 1467 1466 1465 1464 1463 1462 1461 1460 1459 1458 1457 1456 1456 1455 1454 1454 1454 1453 1452 1450 1447 1443 1440 1437 1436 1434 1430 1424 1424 1426 1426 1424 1423 1422 1421 1421 1419 1418 1417 1416 1414 1413 1411 1410 1409 1407 1406 1404 1403 1402 1400 1399 1398 1396 1395 1394 1393 1392 1391 1390 1388 1387 1386 1384 1383 1382 1381 1379 1378 1377 1376 1375 1374 1373 1371 1370 1369 1368 1366 1364
1482 1482 1481 1481 1480 1479 1479 1478 1477 1476 1476 1475 1474 1474 1473 1472 1472 1471 1470 1470 1469 1468 1467 1466 1466 1465 1464 1463 1461 1461 1460 1458 1457 1456 1455 1455 1454 1454 1453 1452 1452 1451 1450 1449 1446 1443 1439 1436 1435 1432 1426 1421 1421 1423 1424 1422 1420 1419 1419 1418 1417 1416 1414 1413 1411 1410 1408 1407 1405 1404 1402 1401 1400 1398 1396 1395 1394 1393 1391 1391 1390 1388 1387 1386 1385 1383 1382 1380 1379 1378 1377 1376 1375 1373 1372 1371 1371 1369 1368 1366 1364 1362 1360
1482 1481 1481 1480 1480 1479 1478 1477 1477 1476 1475 1475 1474 1473 1473 1472 1471 1471 1470 1469 1468 1468 1467 1466 1465 1464 1463 1462 1461 1460 1459 1458 1457 1456 1454 1453 1453 1453 1452 1451 1450 1449 1448 1447 1446 1444 1442 1439 1435 1432 1429 1423 1417 1416 1419 1420 1420 1418 1416 1416 1415 1414 1412 1411 1409 1408 1406 1405 1403 1401 1400 1398 1397 1396 1395 1393 1392 1391 1389 1388 1387 1386 1385 1383 1382 1381 1379 1378 1377 1376 1374 1373 1372 1371 1370 1370 1369 1367 1365 1362 1360 1358 1357
1482 1481 1481 1480 1479 1478 1477 1477 1476 1475 1475 1474 1473 1473 1472 1471 1471 1470 1470 1469 1468 1467 1467 1466 1465 1464 1463 1462 1461 1460 1459 1458 1456 1456 1454 1453 1452 1451 1451 1450 1449 1448 1447 1446 1444 1443 1442 1440 1438 1435 1431 1427 1422 1416 1413 1415 1416 1417 1415 1414 1413 1411 1410 1409 1407 1406 1404 1402 1401 1400 1398 1396 1395 1394 1392 1391 1389 1388 1387 1386 1384 1383 1382 1381 1380 1378 1377 1376 1374 1373 1372 1371 1370 1370 1369 1369 1366 1363 1360 1358 1357 1356 1354
1481 1481 1480 1479 1478 1478 1477 1476 1476 1475 1474 1473 1473 1472 1472 1471 1471 1470 1469 1469 1468 1467 1466 1466 1465 1464 1462 1461 1461 1460 1459 1457 1456 1455 1454 1453 1451 1450 1449 1449 1447 1446 1445 1444 1443 1441 1440 1439 1437 1436 1433 1430 1426 1420 1415 1412 1411 1412 1411 1412 1411 1410 1408 1407 1406 1404 1402 1401 1399 1398 1396 1394 1393 1391 1390 1389 1387 1386 1385 1383 1382 1381 1380 1379 1377 1376 1375 1374 1372 1371 1371 1370 1369 1368 1368 1366 1361 1358 1356 1355 1354 1352 1351